1516730400.79,41234,6.63,73354.0,-12.41,-13.61,-13.87,0,*6E
1516730402.03,41235,6.63,73350.5,-12.43,-13.69,-13.97,0,*64
1516730403.3,41236,6.63,73348.5,-12.43,-13.61,-13.87,0,*6E
1516730404.56,41237,6.63,73348.8,-12.41,-13.69,-13.97,0,*64
1516730405.82,41238,6.63,73350.5,-12.41,-13.69,-13.97,0,*6B
1516730407.08,41239,6.63,73354.8,-12.41,-13.69,-13.87,0,*6B
1516730408.36,41240,6.63,73356.0,-12.41,-13.61,-13.87,0,*6D
1516730409.66,41241,6.63,73354.3,-12.41,-13.83,-14.01,0,*69
1516730410.89,41242,6.63,73354.5,-12.41,-13.73,-14.11,0,*64
1516730412.16,41243,6.63,73352.5,-12.43,-13.87,-14.01,0,*6D
1516730413.39,41244,6.63,73358.5,-12.43,-13.87,-14.11,0,*6B
1516730414.66,41245,6.63,73356.5,-12.43,-13.87,-14.01,0,*6B
1516730415.93,41246,6.63,73354.3,-12.43,-13.83,-14.01,0,*6C
1516730417.17,41247,6.63,73356.0,-12.43,-13.73,-13.87,0,*6B
1516730418.38,41248,6.63,73346.3,-12.43,-13.69,-13.69,0,*6F
1516730419.62,41249,6.63,73342.8,-12.43,-13.61,-13.73,0,*6D
1516730420.85,41250,6.63,73346.3,-12.43,-13.47,-13.61,0,*62
1516730422.12,41251,6.63,73340.3,-12.41,-13.55,-13.61,0,*62
1516730423.34,41252,6.63,73342.0,-12.41,-13.55,-13.69,0,*69
1516730424.57,41253,6.63,73342.0,-12.41,-13.47,-13.69,0,*6B
1516730425.81,41254,6.63,73340.3,-12.43,-13.47,-13.61,0,*66
1516730427.05,41255,6.63,73340.0,-12.43,-13.55,-13.61,0,*64
1516730428.31,41256,6.63,73338.0,-12.41,-13.47,-13.61,0,*66
1516730429.54,41257,6.63,73346.8,-12.41,-13.55,-13.69,0,*6C
1516730430.77,41258,6.63,73346.5,-12.41,-13.55,-13.73,0,*68
1516730432.0,41259,6.63,73346.5,-12.41,-13.55,-13.69,0,*62
1516730433.21,41260,6.63,73350.8,-12.43,-13.55,-13.69,0,*6A
1516730434.42,41261,6.63,73346.3,-12.43,-13.55,-13.73,0,*60
1516730435.66,41262,6.63,73348.5,-12.43,-13.55,-13.83,0,*6C
1516730436.87,41263,6.63,73350.3,-12.43,-13.47,-13.73,0,*61
1516730438.13,41264,6.63,73350.3,-12.41,-13.69,-13.61,0,*6B
1516730439.39,41265,6.63,73340.8,-12.41,-13.55,-13.61,0,*65
1516730440.63,41266,6.63,73338.3,-12.43,-13.55,-13.61,0,*64
1516730441.86,41267,6.63,73340.3,-12.41,-13.47,-13.55,0,*63
1516730443.07,41268,6.63,73342.0,-12.43,-13.47,-13.47,0,*6D
1516730444.28,41269,6.63,73338.0,-12.43,-13.47,-13.55,0,*6F
1516730445.48,41270,6.63,73336.8,-12.43,-13.47,-13.69,0,*68
1516730446.72,41271,6.63,73336.3,-12.43,-13.47,-13.61,0,*61
1516730447.93,41272,6.63,73336.5,-12.43,-13.47,-13.55,0,*65
1516730449.16,41273,6.63,73348.5,-12.41,-13.43,-13.47,0,*61
1516730450.41,41274,6.63,73342.5,-12.41,-13.33,-13.47,0,*61
1516730451.67,41275,6.63,73338.8,-12.41,-13.43,-13.61,0,*63
1516730452.91,41276,6.63,73334.3,-12.41,-13.43,-13.55,0,*67
1516730454.14,41277,6.63,73336.0,-12.43,-13.33,-13.55,0,*63
1516730455.36,41278,6.63,73340.0,-12.43,-13.43,-13.55,0,*6B
1516730456.62,41279,6.63,73342.3,-12.41,-13.33,-13.55,0,*6F
1516730457.87,41280,6.63,73344.8,-12.41,-13.47,-13.61,0,*6D
1516730459.08,41281,6.63,73346.8,-12.43,-13.47,-13.69,0,*66
1516730460.32,41282,6.63,73338.0,-12.43,-13.55,-13.61,0,*6E
1516730461.58,41283,6.63,73336.8,-12.41,-13.47,-13.61,0,*6E
1516730462.82,41284,6.63,73342.0,-12.43,-13.47,-13.61,0,*6B
1516730464.07,41285,6.63,73342.8,-12.41,-13.47,-13.61,0,*68
1516730465.3,41286,6.63,73342.5,-12.41,-13.47,-13.69,0,*63
1516730466.56,41287,6.63,73346.8,-12.41,-13.55,-13.61,0,*69
1516730467.79,41288,6.63,73344.5,-12.41,-13.55,-13.69,0,*6E
1516730469.05,41289,6.63,73346.5,-12.41,-13.55,-13.61,0,*67
1516730470.28,41290,6.63,73346.5,-12.41,-13.47,-13.69,0,*64
1516730471.51,41291,6.63,73354.3,-12.41,-13.55,-13.73,0,*6D
1516730472.77,41292,6.63,73348.5,-12.41,-13.47,-13.61,0,*6E
1516730474.01,41293,6.63,73348.3,-12.43,-13.55,-13.61,0,*6E
1516730475.27,41294,6.63,73346.5,-12.41,-13.55,-13.61,0,*6B
1516730476.5,41295,6.63,73348.3,-12.41,-13.47,-13.69,0,*61
1516730477.74,41296,6.63,73350.8,-12.43,-13.47,-13.61,0,*68
1516730478.98,41297,6.63,73354.5,-12.43,-13.55,-13.61,0,*6A
1516730480.2,41298,6.63,73354.5,-12.41,-13.47,-13.69,0,*6C
1516730481.41,41299,6.63,73350.0,-12.43,-13.47,-13.69,0,*6F
1516730482.64,41300,6.63,73354.5,-12.41,-13.43,-13.69,0,*68
1516730483.85,41301,6.63,73348.3,-12.43,-13.47,-13.73,0,*64
1516730485.06,41302,6.63,73350.5,-12.43,-13.55,-13.73,0,*64
1516730486.29,41303,6.63,73354.0,-12.43,-13.55,-13.83,0,*6A
1516730487.5,41304,6.63,73354.3,-12.43,-13.47,-13.73,0,*61
1516730488.74,41305,6.63,73356.5,-12.43,-13.55,-13.87,0,*68
1516730489.97,41306,6.63,73354.8,-12.41,-13.47,-13.73,0,*61
1516730491.22,41307,6.63,73356.5,-12.41,-13.55,-13.83,0,*6C
1516730492.46,41308,6.63,73354.0,-12.41,-13.55,-13.69,0,*67
1516730493.68,41309,6.63,73352.5,-12.41,-13.47,-13.69,0,*65
1516730494.94,41310,6.63,73348.5,-12.41,-13.55,-13.61,0,*66
1516730496.18,41311,6.63,73354.0,-12.43,-13.47,-13.61,0,*66
1516730497.41,41312,6.63,73354.3,-12.41,-13.43,-13.55,0,*64
1516730498.65,41313,6.63,73352.5,-12.43,-13.33,-13.47,0,*63
1516730499.85,41314,6.63,73348.8,-12.43,-13.43,-13.47,0,*63
1516730501.1,41315,6.63,73350.3,-12.41,-13.33,-13.47,0,*67
1516730502.36,41316,6.63,73352.8,-12.41,-13.33,-13.43,0,*60
1516730503.64,41317,6.63,73352.0,-12.41,-13.33,-13.33,0,*66
1516730504.88,41318,6.63,73348.5,-12.43,-13.33,-13.43,0,*6C
1516730506.11,41319,6.63,73344.8,-12.43,-13.29,-13.43,0,*66
1516730507.37,41320,6.63,73342.8,-12.41,-13.29,-13.47,0,*6A
1516730508.6,41321,6.63,73346.0,-12.43,-13.33,-13.43,0,*66
1516730509.83,41322,6.63,73348.3,-12.43,-13.33,-13.47,0,*61
1516730511.1,41323,6.63,73350.3,-12.43,-13.33,-13.33,0,*63
1516730512.38,41324,6.63,73352.3,-12.41,-13.33,-13.33,0,*66
1516730513.62,41325,6.63,73352.8,-12.43,-13.29,-13.43,0,*69
1516730514.89,41326,6.63,73346.3,-12.43,-13.29,-13.33,0,*6D
1516730516.15,41327,6.63,73344.8,-12.43,-13.29,-13.33,0,*6C
1516730517.39,41328,6.63,73346.8,-12.43,-13.29,-13.43,0,*64
1516730518.68,41329,6.63,73350.0,-12.41,-13.29,-13.33,0,*60
1516730519.94,41330,6.63,73358.0,-12.43,-13.29,-13.33,0,*6A
1516730521.23,41331,6.63,73354.0,-12.41,-13.29,-13.33,0,*69
1516730522.49,41332,6.63,73354.5,-12.41,-13.23,-13.33,0,*60
1516730523.75,41333,6.63,73354.5,-12.41,-13.29,-13.43,0,*6C
1516730525.04,41334,6.63,73354.3,-12.41,-13.29,-13.33,0,*6C
1516730526.29,41335,6.63,73350.5,-12.41,-13.33,-13.43,0,*61
1516730527.53,41336,6.63,73352.0,-12.43,-13.29,-13.43,0,*6B
1516730528.82,41337,6.63,73356.8,-12.41,-13.29,-13.33,0,*6F
1516730530.11,41338,6.63,73348.0,-12.41,-13.29,-13.33,0,*60
1516730531.36,41339,6.63,73350.0,-12.41,-13.29,-13.47,0,*62
1516730532.65,41340,6.63,73350.3,-12.41,-13.29,-13.33,0,*6F
1516730533.9,41341,6.63,73354.3,-12.41,-13.29,-13.43,0,*69
1516730535.14,41342,6.63,73354.3,-12.41,-13.23,-13.43,0,*60
1516730536.39,41343,6.63,73352.3,-12.41,-13.29,-13.43,0,*6B
1516730537.65,41344,6.63,73348.5,-12.41,-13.33,-13.47,0,*63
1516730538.9,41345,6.63,73350.8,-12.41,-13.33,-13.43,0,*66
1516730540.16,41346,6.63,73348.3,-12.41,-13.33,-13.43,0,*65
1516730541.41,41347,6.63,73350.0,-12.41,-13.33,-13.47,0,*60
1516730542.66,41348,6.63,73350.0,-12.41,-13.33,-13.43,0,*6B
1516730543.92,41349,6.63,73348.8,-12.41,-13.33,-13.43,0,*6A
1516730545.17,41350,6.63,73352.3,-12.41,-13.33,-13.43,0,*62
1516730546.43,41351,6.63,73348.8,-12.41,-13.29,-13.43,0,*68
1516730547.68,41352,6.63,73354.8,-12.41,-13.33,-13.43,0,*60
1516730548.92,41353,6.63,73356.5,-12.43,-13.33,-13.47,0,*67
1516730550.17,41354,6.63,73354.8,-12.41,-13.33,-13.47,0,*62
1516730551.4,41355,6.63,73352.8,-12.41,-13.43,-13.47,0,*64
1516730552.62,41356,6.63,73356.5,-12.41,-13.43,-13.47,0,*67
1516730553.86,41357,6.63,73352.3,-12.43,-13.33,-13.43,0,*67
1516730555.09,41358,6.63,73354.3,-12.43,-13.33,-13.47,0,*6C
1516730556.34,41359,6.63,73348.5,-12.41,-13.33,-13.47,0,*6F
1516730557.57,41360,6.63,73354.3,-12.43,-13.33,-13.43,0,*63
1516730558.83,41361,6.63,73354.3,-12.41,-13.33,-13.43,0,*60
1516730560.09,41362,6.63,73358.5,-12.41,-13.33,-13.55,0,*64
1516730561.35,41363,6.63,73356.0,-12.43,-13.33,-13.61,0,*60
1516730562.64,41364,6.63,73358.5,-12.41,-13.33,-13.61,0,*65
1516730563.84,41365,6.63,73358.0,-12.43,-13.43,-13.69,0,*69
1516730565.1,41366,6.63,73354.8,-12.41,-13.33,-13.69,0,*6F
1516730566.36,41367,6.56,73350.8,-12.41,-13.43,-13.61,0,*61
1516730567.59,41368,6.63,73352.0,-12.41,-13.43,-13.69,0,*66
1516730568.82,41369,6.63,73356.0,-12.41,-13.43,-13.69,0,*67
1516730570.1,41370,6.63,73358.8,-12.41,-13.33,-13.61,0,*60
1516730571.36,41371,6.56,73356.5,-12.41,-13.43,-13.61,0,*66
1516730572.57,41372,6.63,73358.3,-12.43,-13.43,-13.69,0,*6F
1516730573.83,41373,6.56,73356.3,-12.41,-13.43,-13.83,0,*68
1516730575.08,41374,6.63,73356.3,-12.41,-13.47,-13.83,0,*6B
1516730576.29,41375,6.63,73358.0,-12.43,-13.47,-13.73,0,*67
1516730577.5,41376,6.63,73356.0,-12.43,-13.55,-13.69,0,*6C
1516730578.76,41377,6.63,73356.8,-12.41,-13.47,-13.61,0,*64
1516730579.98,41378,6.63,73358.0,-12.41,-13.47,-13.69,0,*63
1516730581.21,41379,6.63,73362.3,-12.41,-13.47,-13.69,0,*62
1516730582.44,41380,6.63,73362.3,-12.41,-13.47,-13.73,0,*6F
1516730583.66,41381,6.63,73358.0,-12.41,-13.47,-13.69,0,*65
1516730584.92,41382,6.63,73356.3,-12.41,-13.43,-13.61,0,*6A
1516730586.18,41383,6.56,73352.0,-12.41,-13.43,-13.61,0,*6B
1516730587.42,41384,6.63,73358.3,-12.43,-13.47,-13.61,0,*6A
1516730588.66,41385,6.63,73356.3,-12.43,-13.43,-13.61,0,*6F
1516730589.9,41386,6.63,73354.5,-12.41,-13.43,-13.55,0,*69
1516730591.13,41387,6.56,73354.3,-12.41,-13.43,-13.55,0,*68
1516730592.39,41388,6.63,73360.0,-12.41,-13.33,-13.43,0,*67
1516730593.64,41389,6.63,73356.0,-12.41,-13.33,-13.55,0,*61
1516730594.86,41390,6.56,73354.0,-12.43,-13.43,-13.55,0,*6C
1516730596.1,41391,6.63,73356.5,-12.43,-13.33,-13.55,0,*6A
1516730597.33,41392,6.56,73352.5,-12.41,-13.43,-13.55,0,*6C
1516730598.58,41393,6.63,73354.0,-12.41,-13.33,-13.47,0,*69
1516730599.81,41394,6.63,73356.5,-12.41,-13.43,-13.43,0,*6D
1516730601.04,41395,6.56,73354.8,-12.43,-13.33,-13.47,0,*6D
1516730602.3,41396,6.63,73356.8,-12.41,-13.33,-13.43,0,*68
1516730603.55,41397,6.63,73358.5,-12.41,-13.33,-13.47,0,*6D
1516730604.81,41398,6.63,73358.0,-12.41,-13.33,-13.55,0,*61
1516730606.04,41399,6.56,73354.3,-12.41,-13.43,-13.47,0,*64
1516730607.29,41400,6.63,73356.3,-12.41,-13.33,-13.47,0,*64
1516730608.55,41401,6.63,73356.8,-12.41,-13.33,-13.55,0,*66
1516730609.8,41402,6.63,73356.3,-12.41,-13.33,-13.47,0,*66
1516730611.03,41403,6.63,73358.0,-12.41,-13.47,-13.55,0,*67
1516730612.28,41404,6.63,73356.0,-12.41,-13.33,-13.47,0,*60
1516730613.49,41405,6.63,73356.5,-12.43,-13.43,-13.55,0,*67
1516730614.7,41406,6.63,73356.3,-12.43,-13.43,-13.47,0,*67
1516730615.94,41407,6.63,73354.0,-12.41,-13.43,-13.55,0,*67
1516730617.17,41408,6.56,73352.8,-12.41,-13.43,-13.55,0,*68
1516730618.41,41409,6.63,73358.0,-12.43,-13.33,-13.55,0,*6C
1516730619.64,41410,6.63,73362.5,-12.43,-13.33,-13.47,0,*67
1516730620.85,41411,6.63,73360.3,-12.43,-13.43,-13.43,0,*65
1516730622.08,41412,6.56,73358.0,-12.43,-13.33,-13.43,0,*61
1516730623.34,41413,6.56,73358.5,-12.41,-13.33,-13.47,0,*66
1516730624.59,41414,6.56,73356.5,-12.41,-13.33,-13.47,0,*61
1516730625.84,41415,6.56,73352.8,-12.41,-13.33,-13.43,0,*64
1516730627.1,41416,6.56,73352.3,-12.41,-13.43,-13.33,0,*67
1516730628.36,41417,6.56,73352.0,-12.41,-13.43,-13.33,0,*66
1516730629.62,41418,6.56,73350.5,-12.41,-13.33,-13.43,0,*69
1516730630.85,41419,6.63,73350.0,-12.43,-13.33,-13.43,0,*6A
1516730632.11,41420,6.56,73342.3,-12.41,-13.33,-13.43,0,*62
1516730633.34,41421,6.63,73342.0,-12.41,-13.43,-13.43,0,*64
1516730634.59,41422,6.56,73340.3,-12.41,-13.33,-13.47,0,*64
1516730635.88,41423,6.56,73348.5,-12.41,-13.33,-13.33,0,*66
1516730637.11,41424,6.63,73350.5,-12.41,-13.43,-13.43,0,*61
1516730638.36,41425,6.63,73352.3,-12.41,-13.33,-13.43,0,*67
1516730639.65,41426,6.63,73358.3,-12.41,-13.33,-13.33,0,*63
1516730640.91,41427,6.63,73356.3,-12.43,-13.33,-13.33,0,*60
1516730642.17,41428,6.63,73356.8,-12.41,-13.29,-13.43,0,*61
1516730643.43,41429,6.56,73352.5,-12.41,-13.29,-13.43,0,*60
1516730644.71,41430,6.63,73358.3,-12.41,-13.29,-13.33,0,*6F
1516730645.98,41431,6.56,73356.8,-12.43,-13.29,-13.33,0,*6C
1516730647.24,41432,6.56,73354.3,-12.41,-13.33,-13.43,0,*61
1516730648.49,41433,6.56,73352.8,-12.41,-13.33,-13.43,0,*60
1516730649.72,41434,6.56,73348.5,-12.41,-13.43,-13.43,0,*60
1516730651.01,41435,6.63,73352.0,-12.41,-13.33,-13.33,0,*61
1516730652.29,41436,6.63,73348.5,-12.41,-13.33,-13.33,0,*62
1516730653.58,41437,6.56,73344.5,-12.41,-13.33,-13.33,0,*63
1516730654.86,41438,6.63,73346.0,-12.41,-13.33,-13.33,0,*6C
1516730656.15,41439,6.56,73342.3,-12.41,-13.33,-13.33,0,*6D
1516730657.43,41440,6.63,73346.8,-12.41,-13.33,-13.33,0,*63
1516730658.67,41441,6.63,73350.3,-12.43,-13.33,-13.43,0,*67
1516730659.93,41442,6.56,73346.8,-12.41,-13.43,-13.33,0,*66
1516730661.21,41443,6.63,73348.3,-12.41,-13.33,-13.33,0,*60
1516730662.48,41444,6.56,73348.0,-12.43,-13.33,-13.33,0,*65
1516730663.73,41445,6.56,73348.3,-12.41,-13.33,-13.43,0,*61
1516730664.99,41446,6.56,73352.5,-12.41,-13.43,-13.33,0,*62
1516730666.23,41447,6.63,73356.0,-12.41,-13.43,-13.55,0,*63
1516730667.47,41448,6.56,73350.5,-12.43,-13.55,-13.61,0,*6E
1516730668.73,41449,6.56,73358.8,-12.41,-13.55,-13.61,0,*6D
1516730669.94,41450,6.56,73356.3,-12.43,-13.55,-13.69,0,*6F
1516730671.23,41451,6.63,73358.3,-12.41,-13.61,-13.61,0,*63
1516730672.44,41452,6.56,73346.3,-12.43,-13.47,-13.55,0,*61
1516730673.67,41453,6.56,73338.8,-12.41,-13.43,-13.55,0,*66
1516730674.88,41454,6.56,73334.3,-12.43,-13.47,-13.47,0,*64
1516730676.11,41455,6.56,73324.8,-12.43,-13.47,-13.61,0,*61
1516730677.32,41456,6.56,73326.0,-12.43,-13.47,-13.55,0,*65
1516730678.56,41457,6.56,73324.8,-12.43,-13.61,-13.73,0,*64
1516730679.8,41458,6.56,73334.3,-12.43,-13.61,-13.69,0,*60
1516730681.06,41459,6.56,73332.8,-12.43,-13.61,-13.61,0,*69
1516730682.29,41460,6.56,73338.0,-12.41,-13.43,-13.47,0,*65
1516730683.5,41461,6.56,73338.8,-12.43,-13.43,-13.47,0,*66
1516730684.71,41462,6.56,73336.3,-12.43,-13.43,-13.47,0,*65
1516730685.92,41463,6.63,73342.3,-12.43,-13.43,-13.43,0,*60
1516730687.18,41464,6.56,73338.5,-12.43,-13.33,-13.33,0,*67
1516730688.45,41465,6.63,73350.3,-12.43,-13.33,-13.33,0,*66
1516730689.71,41466,6.63,73348.3,-12.43,-13.29,-13.33,0,*6E
1516730690.98,41467,6.56,73338.0,-12.43,-13.29,-13.33,0,*6F
1516730692.25,41468,6.56,73342.3,-12.43,-13.29,-13.33,0,*60
1516730693.51,41469,6.56,73348.0,-12.43,-13.29,-13.33,0,*61
1516730694.78,41470,6.63,73350.3,-12.43,-13.29,-13.29,0,*62
1516730696.04,41471,6.56,73348.8,-12.43,-13.33,-13.33,0,*63
1516730697.31,41472,6.56,73348.5,-12.43,-13.33,-13.33,0,*60
1516730698.57,41473,6.56,73354.3,-12.43,-13.29,-13.33,0,*6A
1516730699.81,41474,6.56,73350.3,-12.43,-13.23,-13.29,0,*6C
1516730701.11,41475,6.56,73350.8,-12.45,-13.29,-13.29,0,*61
1516730702.37,41476,6.56,73354.8,-12.43,-13.29,-13.33,0,*6F
1516730703.62,41477,6.56,73352.8,-12.43,-13.23,-13.33,0,*64
1516730704.9,41478,6.56,73352.5,-12.41,-13.29,-13.29,0,*68
1516730706.16,41479,6.56,73354.8,-12.43,-13.29,-13.29,0,*6B
1516730707.45,41480,6.56,73358.3,-12.41,-13.29,-13.29,0,*6F
1516730708.72,41481,6.56,73354.0,-12.43,-13.29,-13.33,0,*67
1516730709.96,41482,6.56,73352.8,-12.43,-13.23,-13.33,0,*6E
1516730711.23,41483,6.56,73354.5,-12.43,-13.29,-13.33,0,*65
1516730712.47,41484,6.56,73350.0,-12.43,-13.23,-13.29,0,*63
1516730713.71,41485,6.56,73346.8,-12.43,-13.23,-13.29,0,*62
1516730714.95,41486,6.56,73346.5,-12.43,-13.23,-13.33,0,*6A
1516730716.22,41487,6.56,73354.3,-12.43,-13.29,-13.33,0,*61
1516730717.48,41488,6.56,73352.3,-12.43,-13.29,-13.29,0,*65
1516730718.72,41489,6.56,73352.0,-12.43,-13.29,-13.23,0,*6E
1516730719.99,41490,6.56,73350.5,-12.43,-13.29,-13.29,0,*6C
1516730721.25,41491,6.56,73354.5,-12.41,-13.23,-13.29,0,*65
1516730722.51,41492,6.56,73352.5,-12.41,-13.23,-13.29,0,*66
1516730723.77,41493,6.56,73356.5,-12.41,-13.23,-13.29,0,*67
1516730725.01,41494,6.56,73356.5,-12.43,-13.11,-13.29,0,*63
1516730726.22,41495,6.56,73354.8,-12.43,-13.23,-13.23,0,*69
1516730727.49,41496,6.56,73356.8,-12.41,-13.23,-13.29,0,*62
1516730728.77,41497,6.56,73354.0,-12.41,-13.29,-13.29,0,*69
1516730730.03,41498,6.56,73358.3,-12.41,-13.23,-13.29,0,*6C
1516730731.32,41499,6.56,73356.0,-12.41,-13.29,-13.29,0,*67
1516730732.55,41500,6.56,73362.0,-12.43,-13.15,-13.33,0,*60
1516730733.82,41501,6.56,73356.5,-12.43,-13.29,-13.33,0,*6E
1516730735.06,41502,6.56,73354.8,-12.43,-13.23,-13.33,0,*67
1516730736.33,41503,6.56,73356.5,-12.43,-13.29,-13.33,0,*6C
1516730737.57,41504,6.56,73358.5,-12.43,-13.29,-13.43,0,*6C
1516730738.8,41505,6.56,73360.5,-12.43,-13.29,-13.43,0,*6D
1516730740.04,41506,6.56,73358.0,-12.41,-13.23,-13.43,0,*66
1516730741.3,41507,6.56,73356.3,-12.43,-13.29,-13.33,0,*68
1516730742.54,41508,6.56,73360.8,-12.43,-13.29,-13.55,0,*67
1516730743.8,41509,6.56,73354.3,-12.41,-13.29,-13.43,0,*63
1516730745.06,41510,6.56,73352.0,-12.41,-13.33,-13.43,0,*60
1516730746.29,41511,6.56,73352.8,-12.43,-13.33,-13.47,0,*67
1516730747.52,41512,6.56,73350.8,-12.43,-13.33,-13.55,0,*67
1516730748.76,41513,6.56,73354.3,-12.43,-13.33,-13.47,0,*65
1516730749.99,41514,6.56,73356.8,-12.41,-13.43,-13.55,0,*64
1516730751.22,41515,6.56,73352.5,-12.41,-13.43,-13.47,0,*66
1516730752.43,41516,6.56,73356.5,-12.43,-13.43,-13.55,0,*64
1516730753.68,41517,6.56,73356.0,-12.41,-13.33,-13.47,0,*63
1516730754.94,41518,6.56,73356.0,-12.41,-13.33,-13.55,0,*6F
1516730756.2,41519,6.56,73358.8,-12.41,-13.33,-13.55,0,*6E
1516730757.44,41520,6.56,73352.5,-12.43,-13.33,-13.55,0,*66
1516730758.68,41521,6.56,73352.3,-12.43,-13.33,-13.55,0,*67
1516730759.91,41522,6.56,73356.0,-12.43,-13.33,-13.55,0,*64
1516730761.13,41523,6.56,73358.0,-12.43,-13.43,-13.55,0,*62
1516730762.36,41524,6.56,73354.0,-12.43,-13.33,-13.47,0,*61
1516730763.59,41525,6.56,73360.0,-12.43,-13.33,-13.55,0,*63
1516730764.86,41526,6.56,73356.0,-12.41,-13.43,-13.61,0,*62
1516730766.09,41527,6.56,73356.3,-12.41,-13.43,-13.55,0,*64
1516730767.3,41528,6.56,73356.3,-12.43,-13.43,-13.69,0,*66
1516730768.54,41529,6.56,73356.8,-12.43,-13.43,-13.61,0,*6F
1516730769.78,41530,6.56,73358.3,-12.43,-13.43,-13.61,0,*67
1516730771.01,41531,6.56,73358.3,-12.41,-13.43,-13.55,0,*63
1516730772.22,41532,6.56,73354.3,-12.43,-13.43,-13.47,0,*61
1516730773.45,41533,6.56,73356.5,-12.43,-13.33,-13.47,0,*67
1516730774.69,41534,6.56,73356.3,-12.43,-13.29,-13.47,0,*6B
1516730775.94,41535,6.56,73352.8,-12.41,-13.33,-13.47,0,*63
1516730777.15,41536,6.56,73358.0,-12.43,-13.43,-13.43,0,*61
1516730778.36,41537,6.56,73358.8,-12.43,-13.43,-13.47,0,*64
1516730779.59,41538,6.56,73354.5,-12.43,-13.33,-13.55,0,*6F
1516730780.8,41539,6.56,73354.8,-12.43,-13.47,-13.47,0,*6E
1516730782.01,41540,6.56,73358.0,-12.43,-13.43,-13.55,0,*67
1516730783.24,41541,6.56,73356.5,-12.41,-13.43,-13.47,0,*67
1516730784.45,41542,6.56,73358.0,-12.43,-13.43,-13.47,0,*66
1516730785.66,41543,6.56,73352.3,-12.43,-13.43,-13.55,0,*64
1516730786.89,41544,6.56,73356.5,-12.43,-13.33,-13.47,0,*67
1516730788.12,41545,6.56,73352.5,-12.41,-13.43,-13.47,0,*63
1516730789.37,41546,6.56,73350.3,-12.41,-13.33,-13.43,0,*63
1516730790.61,41547,6.56,73350.0,-12.41,-13.43,-13.55,0,*62
1516730791.86,41548,6.56,73350.0,-12.41,-13.33,-13.47,0,*69
1516730793.07,41549,6.56,73348.3,-12.43,-13.43,-13.55,0,*6E
1516730794.31,41550,6.56,73344.5,-12.43,-13.33,-13.55,0,*61
1516730795.57,41551,6.56,73350.5,-12.41,-13.47,-13.61,0,*66
1516730796.81,41552,6.56,73350.5,-12.43,-13.47,-13.61,0,*67
1516730798.05,41553,6.56,73352.0,-12.43,-13.43,-13.61,0,*62
1516730799.27,41554,6.56,73352.0,-12.41,-13.43,-13.69,0,*6F
1516730800.49,41555,6.56,73348.0,-12.43,-13.43,-13.55,0,*63
1516730801.72,41556,6.56,73350.8,-12.41,-13.55,-13.69,0,*6A
1516730802.96,41557,6.56,73350.3,-12.43,-13.55,-13.61,0,*61
1516730804.18,41558,6.56,73350.5,-12.41,-13.47,-13.47,0,*6B
1516730805.42,41559,6.56,73354.0,-12.43,-13.47,-13.61,0,*6C
1516730806.68,41560,6.56,73358.3,-12.41,-13.47,-13.61,0,*64
1516730807.92,41561,6.56,73358.5,-12.43,-13.43,-13.61,0,*63
1516730809.15,41562,6.56,73358.0,-12.41,-13.43,-13.55,0,*65
1516730810.39,41563,6.56,73350.5,-12.43,-13.47,-13.61,0,*65
1516730811.62,41564,6.56,73348.5,-12.41,-13.43,-13.69,0,*6C
1516730812.83,41565,6.56,73348.0,-12.43,-13.43,-13.47,0,*63
1516730814.07,41566,6.56,73350.8,-12.43,-13.43,-13.61,0,*64
1516730815.33,41567,6.56,73350.0,-12.43,-13.33,-13.33,0,*65
1516730816.54,41568,6.56,73344.8,-12.43,-13.43,-13.47,0,*6E
1516730817.75,41569,6.56,73342.5,-12.43,-13.55,-13.47,0,*68
1516730818.96,41570,6.56,73342.5,-12.43,-13.43,-13.43,0,*63
1516730820.17,41571,6.56,73338.3,-12.43,-13.43,-13.43,0,*62
1516730821.4,41572,6.56,73342.8,-12.43,-13.33,-13.43,0,*66
1516730822.64,41573,6.56,73338.5,-12.43,-13.33,-13.43,0,*67
1516730823.87,41574,6.56,73338.3,-12.43,-13.33,-13.43,0,*60
1516730825.14,41575,6.56,73338.0,-12.43,-13.33,-13.33,0,*66
1516730826.4,41576,6.56,73334.5,-12.43,-13.33,-13.33,0,*65
1516730827.66,41577,6.56,73338.8,-12.41,-13.33,-13.43,0,*61
1516730828.92,41578,6.56,73342.0,-12.43,-13.33,-13.33,0,*6B
1516730830.18,41579,6.56,73342.8,-12.41,-13.33,-13.43,0,*6F
1516730831.44,41580,6.56,73346.8,-12.43,-13.33,-13.33,0,*6C
1516730832.7,41581,6.56,73346.3,-12.43,-13.33,-13.33,0,*6D
1516730833.95,41582,6.56,73348.5,-12.43,-13.29,-13.55,0,*65
1516730835.18,41583,6.56,73354.8,-12.41,-13.43,-13.55,0,*6A
1516730836.42,41584,6.56,73358.0,-12.43,-13.33,-13.55,0,*68
1516730837.67,41585,6.56,73356.0,-12.41,-13.33,-13.47,0,*68
1516730838.9,41586,6.56,73358.0,-12.43,-13.33,-13.47,0,*69
1516730840.13,41587,6.56,73362.8,-12.43,-13.33,-13.47,0,*68
1516730841.38,41588,6.56,73358.8,-12.41,-13.33,-13.47,0,*65
1516730842.59,41589,6.56,73358.3,-12.43,-13.43,-13.47,0,*61
1516730843.8,41590,6.56,73362.3,-12.43,-13.43,-13.47,0,*69
1516730845.03,41591,6.56,73360.0,-12.43,-13.33,-13.55,0,*6C
1516730846.29,41592,6.56,73358.8,-12.41,-13.33,-13.55,0,*6D
1516730847.5,41593,6.56,73354.8,-12.43,-13.43,-13.47,0,*6A
1516730848.73,41594,6.56,73352.3,-12.43,-13.33,-13.43,0,*6E
1516730849.97,41595,6.56,73354.0,-12.43,-13.33,-13.47,0,*6B
1516730851.2,41596,6.56,73354.5,-12.43,-13.33,-13.47,0,*68
1516730852.43,41597,6.56,73354.5,-12.43,-13.33,-13.47,0,*69
1516730853.66,41598,6.56,73356.5,-12.43,-13.33,-13.55,0,*65
1516730854.9,41599,6.56,73358.3,-12.43,-13.33,-13.47,0,*67
1516730856.1,41600,6.56,73354.5,-12.43,-13.43,-13.47,0,*63
1516730857.36,41601,6.56,73354.8,-12.41,-13.33,-13.43,0,*63
1516730858.59,41602,6.56,73352.0,-12.43,-13.33,-13.43,0,*62
1516730859.84,41603,6.56,73352.3,-12.41,-13.29,-13.47,0,*6E
1516730861.08,41604,6.56,73352.3,-12.41,-13.43,-13.43,0,*61
1516730862.31,41605,6.56,73354.5,-12.43,-13.33,-13.47,0,*61
1516730863.51,41606,6.56,73354.3,-12.43,-13.43,-13.47,0,*65
1516730864.75,41607,6.56,73356.5,-12.43,-13.33,-13.43,0,*67
1516730866.0,41608,6.56,73358.8,-12.41,-13.33,-13.43,0,*6A
1516730867.24,41609,6.56,73358.3,-12.43,-13.43,-13.33,0,*69
1516730868.48,41610,6.56,73356.0,-12.43,-13.33,-13.43,0,*61
1516730869.72,41611,6.56,73352.3,-12.43,-13.29,-13.43,0,*6B
1516730870.97,41612,6.56,73356.0,-12.41,-13.29,-13.43,0,*6A
1516730872.24,41613,6.56,73354.0,-12.43,-13.29,-13.33,0,*6E
1516730873.48,41614,6.56,73356.5,-12.43,-13.29,-13.43,0,*6E
1516730874.76,41615,6.56,73356.0,-12.41,-13.29,-13.33,0,*6A
1516730876.03,41616,6.56,73358.5,-12.43,-13.29,-13.33,0,*6B
1516730877.27,41617,6.56,73360.3,-12.43,-13.29,-13.43,0,*6D
1516730878.5,41618,6.56,73358.5,-12.43,-13.29,-13.43,0,*62
1516730879.74,41619,6.56,73358.0,-12.43,-13.29,-13.43,0,*63
1516730880.97,41620,6.56,73352.5,-12.43,-13.33,-13.43,0,*62
1516730882.23,41621,6.56,73352.0,-12.41,-13.33,-13.55,0,*66
1516730883.46,41622,6.56,73354.0,-12.43,-13.33,-13.47,0,*64
1516730884.72,41623,6.56,73352.5,-12.41,-13.33,-13.47,0,*67
1516730885.95,41624,6.56,73354.3,-12.43,-13.33,-13.43,0,*66
1516730887.18,41625,6.56,73356.5,-12.43,-13.33,-13.43,0,*67
1516730888.42,41626,6.56,73354.0,-12.43,-13.33,-13.43,0,*64
1516730889.65,41627,6.56,73356.8,-12.43,-13.33,-13.43,0,*65
1516730890.89,41628,6.56,73354.5,-12.43,-13.33,-13.43,0,*6A
1516730892.12,41629,6.56,73350.5,-12.43,-13.29,-13.43,0,*60
1516730893.36,41630,6.56,73356.0,-12.41,-13.23,-13.43,0,*60
1516730894.62,41631,6.56,73354.0,-12.43,-13.29,-13.33,0,*6E
1516730895.89,41632,6.56,73358.5,-12.43,-13.33,-13.33,0,*66
1516730897.13,41633,6.56,73360.5,-12.43,-13.33,-13.55,0,*67